FIN4AF EFHK-LIPE

Flight info

Callsign FIN4AF
Flight time 2h 59m
Altitude 36000
Route VALOX Y117 ROSAX DCT PIMEX P739 DEREX DCT ANFEV DCT PENOR DCT BAREP DCT RASAN DCT ODLIV DCT PINQI DCT NEMAL DCT DETSA/N0444F370 DCT ADOSA/N0370F190 M738 BENUS
Aircraft A319/M-SDE1E2E3FGIJ1M1RWXY/LB1

Departure

Time 2026-05-04 13:26
Airport Helsinki Vantaa Airport (EFHK)

Arrival

Time 2026-05-04 16:26
Airport Bologna Guglielmo Marconi Airport (LIPE)
Time Latitude Longitude Altitude Speed Heading
2026-05-04 12:15 60.31556 24.97322 167 ft 0 kts 243°
2026-05-04 13:15 60.31557 24.97324 166 ft 2 kts 243°
2026-05-04 13:15 60.31570 24.97365 166 ft 4 kts 221°
2026-05-04 13:16 60.31592 24.97396 166 ft 4 kts 211°
2026-05-04 13:16 60.31609 24.97414 165 ft 4 kts 309°
2026-05-04 13:16 60.31592 24.97434 164 ft 4 kts 333°
2026-05-04 13:16 60.31573 24.97454 163 ft 1 kts 333°
2026-05-04 13:21 60.31577 24.97449 163 ft 1 kts 332°
2026-05-04 13:21 60.31593 24.97433 164 ft 4 kts 334°
2026-05-04 13:22 60.31632 24.97466 162 ft 11 kts 56°
2026-05-04 13:22 60.31715 24.97459 159 ft 12 kts 331°
2026-05-04 13:22 60.31794 24.97376 161 ft 13 kts 332°
2026-05-04 13:22 60.31875 24.97307 162 ft 11 kts 335°
2026-05-04 13:23 60.31942 24.97221 164 ft 12 kts 330°
2026-05-04 13:23 60.32016 24.97149 165 ft 12 kts 333°
2026-05-04 13:23 60.32098 24.97062 166 ft 14 kts 332°
2026-05-04 13:23 60.32192 24.96960 166 ft 17 kts 332°
2026-05-04 13:24 60.32307 24.96847 165 ft 18 kts 332°
2026-05-04 13:24 60.32372 24.96779 168 ft 10 kts 332°
2026-05-04 13:24 60.32422 24.96726 172 ft 6 kts 332°
2026-05-04 13:25 60.32490 24.96655 175 ft 7 kts 320°
2026-05-04 13:25 60.32480 24.96603 175 ft 5 kts 221°
2026-05-04 13:25 60.32473 24.96589 175 ft 1 kts 221°
2026-05-04 13:25 60.32397 24.96428 176 ft 52 kts 227°
2026-05-04 13:26 60.31951 24.95449 173 ft 135 kts 227°
2026-05-04 13:26 60.31188 24.93762 464 ft 174 kts 227°
2026-05-04 13:26 60.30270 24.92045 1151 ft 188 kts 218°
2026-05-04 13:26 60.29142 24.90600 1806 ft 198 kts 211°
2026-05-04 13:27 60.27932 24.89250 2516 ft 200 kts 211°
2026-05-04 13:27 60.26668 24.87893 3147 ft 211 kts 210°
2026-05-04 13:27 60.25381 24.86566 4113 ft 203 kts 209°
2026-05-04 13:27 60.24123 24.85325 4995 ft 201 kts 209°
2026-05-04 13:28 60.22810 24.84277 5733 ft 205 kts 200°
2026-05-04 13:28 60.21399 24.83579 6381 ft 213 kts 198°
2026-05-04 13:28 60.19910 24.82932 6975 ft 223 kts 197°
2026-05-04 13:28 60.18394 24.82353 7747 ft 225 kts 196°
2026-05-04 13:29 60.16854 24.81822 8617 ft 224 kts 197°
2026-05-04 13:29 60.15357 24.81050 9474 ft 220 kts 209°
2026-05-04 13:29 60.14026 24.79335 9844 ft 236 kts 225°
2026-05-04 13:29 60.12760 24.77000 10153 ft 260 kts 224°
2026-05-04 13:30 60.11315 24.74521 10441 ft 285 kts 223°
2026-05-04 13:30 60.09749 24.71951 10928 ft 298 kts 222°
2026-05-04 13:30 60.08117 24.69330 11644 ft 303 kts 221°
2026-05-04 13:30 60.06463 24.66695 12387 ft 306 kts 221°
2026-05-04 13:31 60.04783 24.64029 13142 ft 308 kts 221°
2026-05-04 13:31 60.03098 24.61353 13827 ft 311 kts 222°
2026-05-04 13:31 60.01389 24.58630 14465 ft 314 kts 222°
2026-05-04 13:31 59.99675 24.55900 15107 ft 317 kts 222°
2026-05-04 13:32 59.97942 24.53138 15747 ft 319 kts 222°
2026-05-04 13:32 59.96220 24.50386 16393 ft 322 kts 222°
2026-05-04 13:32 59.94466 24.47579 17024 ft 324 kts 222°
2026-05-04 13:32 59.92692 24.44740 17650 ft 327 kts 222°
2026-05-04 13:33 59.90902 24.41881 18247 ft 330 kts 221°
2026-05-04 13:33 59.89122 24.39050 18821 ft 332 kts 221°
2026-05-04 13:33 59.87299 24.36161 19372 ft 334 kts 221°
2026-05-04 13:33 59.85469 24.33269 19950 ft 337 kts 221°
2026-05-04 13:34 59.83620 24.30351 20521 ft 339 kts 221°
2026-05-04 13:34 59.81771 24.27431 21090 ft 341 kts 221°
2026-05-04 13:34 59.79926 24.24518 21647 ft 343 kts 221°
2026-05-04 13:34 59.78052 24.21570 22201 ft 346 kts 221°
2026-05-04 13:35 59.76153 24.18593 22748 ft 348 kts 221°
2026-05-04 13:35 59.72973 24.13606 23552 ft 352 kts 221°
2026-05-04 13:35 59.71003 24.10658 23977 ft 354 kts 219°
2026-05-04 13:36 59.68999 24.07798 24426 ft 356 kts 219°
2026-05-04 13:36 59.66976 24.04979 24852 ft 357 kts 218°
2026-05-04 13:36 59.64956 24.02191 25267 ft 359 kts 218°
2026-05-04 13:36 59.62902 23.99350 25688 ft 360 kts 218°
2026-05-04 13:37 59.60855 23.96502 26090 ft 362 kts 218°
2026-05-04 13:37 59.58790 23.93613 26504 ft 363 kts 218°
2026-05-04 13:37 59.56729 23.90714 26905 ft 365 kts 218°
2026-05-04 13:37 59.54649 23.87782 27303 ft 367 kts 218°
2026-05-04 13:38 59.52591 23.84887 27694 ft 368 kts 218°
2026-05-04 13:38 59.50501 23.81955 28086 ft 370 kts 218°
2026-05-04 13:38 59.48394 23.78974 28468 ft 371 kts 220°
2026-05-04 13:38 59.46504 23.75536 28827 ft 371 kts 229°
2026-05-04 13:39 59.44758 23.71774 29184 ft 373 kts 229°
2026-05-04 13:39 59.43005 23.68003 29538 ft 374 kts 228°
2026-05-04 13:39 59.41239 23.64217 29853 ft 376 kts 228°
2026-05-04 13:39 59.39461 23.60416 30116 ft 379 kts 228°
2026-05-04 13:40 59.37675 23.56610 30358 ft 381 kts 228°
2026-05-04 13:40 59.35888 23.52805 30605 ft 383 kts 228°
2026-05-04 13:40 59.34075 23.48956 30839 ft 386 kts 228°
2026-05-04 13:40 59.32240 23.45067 31080 ft 388 kts 228°
2026-05-04 13:41 59.30398 23.41163 31403 ft 388 kts 228°
2026-05-04 13:41 59.28592 23.37345 31735 ft 388 kts 228°
2026-05-04 13:41 59.26754 23.33475 32069 ft 388 kts 228°
2026-05-04 13:42 59.23074 23.25746 32720 ft 388 kts 228°
2026-05-04 13:42 59.21231 23.21885 33045 ft 388 kts 228°
2026-05-04 13:42 59.19383 23.18017 33373 ft 388 kts 228°
2026-05-04 13:42 59.17543 23.14164 33648 ft 389 kts 228°
2026-05-04 13:43 59.13858 23.06482 33719 ft 389 kts 228°
2026-05-04 13:43 59.10149 22.98783 33722 ft 389 kts 228°
2026-05-04 13:44 59.06437 22.91092 33730 ft 390 kts 228°
2026-05-04 13:44 59.02743 22.83459 33727 ft 390 kts 228°
2026-05-04 13:45 58.99011 22.75779 33728 ft 391 kts 228°
2026-05-04 13:45 58.95272 22.68099 33728 ft 391 kts 228°
2026-05-04 13:46 58.91530 22.60428 33724 ft 392 kts 228°
2026-05-04 13:46 58.87794 22.52821 33722 ft 392 kts 228°
2026-05-04 13:47 58.84020 22.45170 33724 ft 393 kts 228°
2026-05-04 13:47 58.80234 22.37518 33724 ft 393 kts 228°
2026-05-04 13:48 58.76470 22.29932 33727 ft 394 kts 227°
2026-05-04 13:48 58.72677 22.22306 33723 ft 394 kts 227°
2026-05-04 13:49 58.68875 22.14680 33742 ft 394 kts 227°
2026-05-04 13:49 58.65084 22.07114 33729 ft 395 kts 227°
2026-05-04 13:50 58.61266 21.99529 33729 ft 395 kts 227°
2026-05-04 13:50 58.57442 21.91932 33738 ft 395 kts 227°
2026-05-04 13:51 58.53613 21.84364 33744 ft 395 kts 227°
2026-05-04 13:51 58.49798 21.76853 33739 ft 395 kts 227°
2026-05-04 13:52 58.44053 21.65564 33742 ft 396 kts 227°
2026-05-04 13:53 58.40204 21.58042 33747 ft 396 kts 227°
2026-05-04 13:53 58.36343 21.50529 33747 ft 396 kts 227°
2026-05-04 13:54 58.30558 21.39334 33747 ft 396 kts 227°
2026-05-04 13:55 58.24745 21.28117 33760 ft 396 kts 227°
2026-05-04 13:55 58.18937 21.16981 33750 ft 397 kts 227°
2026-05-04 13:56 58.15022 21.09563 33754 ft 397 kts 227°
2026-05-04 13:57 58.09164 20.98536 33758 ft 397 kts 227°
2026-05-04 13:58 58.01338 20.83852 33768 ft 397 kts 227°
2026-05-04 13:58 57.95460 20.72891 33764 ft 397 kts 227°
2026-05-04 13:59 57.91527 20.65598 33770 ft 397 kts 227°
2026-05-04 14:00 57.85612 20.54671 33768 ft 397 kts 227°
2026-05-04 14:00 57.79723 20.43818 33777 ft 396 kts 227°
2026-05-04 14:01 57.75766 20.36573 33784 ft 396 kts 227°
2026-05-04 14:02 57.69865 20.25799 33779 ft 396 kts 227°
2026-05-04 14:02 57.65887 20.18623 33781 ft 397 kts 226°
2026-05-04 14:03 57.61803 20.11718 33786 ft 397 kts 225°
2026-05-04 14:03 57.57650 20.04874 33780 ft 397 kts 225°
2026-05-04 14:04 57.51480 19.94649 33782 ft 397 kts 225°
2026-05-04 14:04 57.47353 19.87791 33785 ft 397 kts 225°
2026-05-04 14:05 57.41164 19.77540 33783 ft 397 kts 225°
2026-05-04 14:06 57.37061 19.70776 33786 ft 397 kts 225°
2026-05-04 14:06 57.32934 19.63995 33788 ft 396 kts 225°
2026-05-04 14:07 57.28804 19.57230 33795 ft 396 kts 225°
2026-05-04 14:07 57.24671 19.50484 33795 ft 396 kts 225°
2026-05-04 14:08 57.20563 19.43800 33796 ft 395 kts 225°
2026-05-04 14:08 57.16422 19.37065 33794 ft 395 kts 225°
2026-05-04 14:09 57.10244 19.27074 33808 ft 395 kts 225°
2026-05-04 14:10 57.04029 19.17078 33804 ft 395 kts 225°
2026-05-04 14:10 56.99890 19.10447 33807 ft 394 kts 225°
2026-05-04 14:11 56.95776 19.03873 33806 ft 394 kts 225°
2026-05-04 14:11 56.89570 18.94004 33807 ft 393 kts 225°
2026-05-04 14:12 56.85427 18.87435 33810 ft 393 kts 225°
2026-05-04 14:13 56.79252 18.77680 33807 ft 393 kts 225°
2026-05-04 14:13 56.75108 18.71160 33815 ft 393 kts 225°
2026-05-04 14:14 56.70965 18.64667 33814 ft 392 kts 225°
2026-05-04 14:14 56.64786 18.54991 33817 ft 392 kts 226°
2026-05-04 14:15 56.56510 18.42120 33824 ft 391 kts 225°
2026-05-04 14:16 56.50315 18.32558 33820 ft 391 kts 225°
2026-05-04 14:17 56.44096 18.22983 33823 ft 390 kts 226°
2026-05-04 14:18 56.37903 18.13485 33823 ft 390 kts 225°
2026-05-04 14:19 56.29650 18.00876 33831 ft 390 kts 225°
2026-05-04 14:19 56.25500 17.94580 33831 ft 390 kts 225°
2026-05-04 14:20 56.21347 17.88302 33833 ft 389 kts 225°
2026-05-04 14:20 56.17215 17.82072 33834 ft 389 kts 225°
2026-05-04 14:21 56.10997 17.72703 33839 ft 389 kts 225°
2026-05-04 14:21 56.06837 17.66467 33840 ft 389 kts 225°
2026-05-04 14:22 56.02712 17.60303 33848 ft 389 kts 225°
2026-05-04 14:22 55.98552 17.54104 33850 ft 389 kts 225°
2026-05-04 14:23 55.93007 17.45882 33852 ft 389 kts 225°
2026-05-04 14:24 55.88167 17.38728 33855 ft 388 kts 225°
2026-05-04 14:24 55.84678 17.33573 33856 ft 388 kts 225°
2026-05-04 14:25 55.80543 17.27487 33863 ft 388 kts 224°
2026-05-04 14:25 55.75763 17.22750 33866 ft 404 kts 206°
2026-05-04 14:25 55.73079 17.21250 33868 ft 405 kts 205°
2026-05-04 14:26 55.67683 17.18274 33872 ft 404 kts 205°
2026-05-04 14:26 55.62346 17.15326 33874 ft 404 kts 205°
2026-05-04 14:27 55.56947 17.12499 33876 ft 404 kts 204°
2026-05-04 14:27 55.51534 17.09764 33877 ft 404 kts 204°
2026-05-04 14:28 55.46130 17.07036 33886 ft 403 kts 204°
2026-05-04 14:28 55.40762 17.04310 33887 ft 402 kts 204°
2026-05-04 14:29 55.30044 16.98842 33898 ft 401 kts 204°
2026-05-04 14:30 55.24676 16.96119 33898 ft 401 kts 203°
2026-05-04 14:31 55.16628 16.92064 33911 ft 401 kts 203°
2026-05-04 14:32 55.05915 16.86676 33915 ft 401 kts 203°
2026-05-04 14:32 55.00540 16.84005 33918 ft 401 kts 203°
2026-05-04 14:33 54.95193 16.81328 33923 ft 401 kts 203°
2026-05-04 14:33 54.89825 16.78661 33923 ft 402 kts 203°
2026-05-04 14:34 54.84468 16.76020 33925 ft 402 kts 203°
2026-05-04 14:34 54.79078 16.73355 33932 ft 402 kts 203°
2026-05-04 14:35 54.73679 16.70700 33933 ft 402 kts 203°
2026-05-04 14:35 54.68326 16.68050 33932 ft 402 kts 203°
2026-05-04 14:36 54.62925 16.65397 33944 ft 403 kts 202°
2026-05-04 14:36 54.57558 16.62784 33945 ft 403 kts 202°
2026-05-04 14:37 54.52152 16.60142 33942 ft 403 kts 202°
2026-05-04 14:37 54.46747 16.57513 33950 ft 403 kts 202°
2026-05-04 14:38 54.41335 16.54885 33948 ft 403 kts 202°
2026-05-04 14:38 54.35966 16.52282 33949 ft 403 kts 202°
2026-05-04 14:39 54.30549 16.49681 33953 ft 404 kts 202°
2026-05-04 14:39 54.25133 16.47084 33948 ft 404 kts 202°
2026-05-04 14:40 54.17026 16.43194 33949 ft 404 kts 202°
2026-05-04 14:40 54.11610 16.40600 33952 ft 404 kts 202°
2026-05-04 14:41 54.06185 16.38024 33950 ft 405 kts 202°
2026-05-04 14:42 53.95338 16.32880 33945 ft 405 kts 202°
2026-05-04 14:42 53.89896 16.30314 33944 ft 406 kts 201°
2026-05-04 14:43 53.84450 16.27738 33940 ft 406 kts 201°
2026-05-04 14:43 53.79006 16.25176 33936 ft 406 kts 201°
2026-05-04 14:44 53.73573 16.22627 33940 ft 407 kts 201°
2026-05-04 14:44 53.68105 16.20066 33937 ft 408 kts 201°
2026-05-04 14:45 53.62658 16.17534 33928 ft 408 kts 201°
2026-05-04 14:45 53.57167 16.14981 33934 ft 408 kts 201°
2026-05-04 14:46 53.51675 16.12430 33931 ft 409 kts 201°
2026-05-04 14:46 53.46172 16.09882 33925 ft 410 kts 201°
2026-05-04 14:47 53.40697 16.07360 33929 ft 410 kts 201°
2026-05-04 14:47 53.35211 16.04840 33933 ft 411 kts 201°
2026-05-04 14:48 53.29686 16.02310 33931 ft 411 kts 201°
2026-05-04 14:48 53.24139 15.99772 33932 ft 412 kts 200°
2026-05-04 14:49 53.18628 15.97260 33933 ft 413 kts 200°
2026-05-04 14:49 53.13062 15.94722 34371 ft 414 kts 200°
2026-05-04 14:50 53.10283 15.93460 34687 ft 415 kts 200°
2026-05-04 14:50 53.07489 15.92191 34961 ft 416 kts 200°
2026-05-04 14:50 53.04693 15.90919 35227 ft 417 kts 200°
2026-05-04 14:50 53.01883 15.89645 35492 ft 417 kts 200°
2026-05-04 14:51 52.99084 15.88376 35746 ft 418 kts 200°
2026-05-04 14:51 52.96295 15.87116 35902 ft 419 kts 200°
2026-05-04 14:51 52.90697 15.84610 35934 ft 415 kts 200°
2026-05-04 14:52 52.85117 15.82114 35937 ft 414 kts 200°
2026-05-04 14:52 52.79543 15.79616 35935 ft 415 kts 200°
2026-05-04 14:53 52.73993 15.77131 35940 ft 415 kts 200°
2026-05-04 14:53 52.68409 15.74649 35931 ft 415 kts 200°
2026-05-04 14:54 52.62862 15.72169 35940 ft 415 kts 200°
2026-05-04 14:54 52.57265 15.69684 35940 ft 416 kts 200°
2026-05-04 14:55 52.51666 15.67221 35926 ft 416 kts 200°
2026-05-04 14:55 52.46067 15.64763 35935 ft 416 kts 200°
2026-05-04 14:56 52.40500 15.62310 35937 ft 416 kts 200°
2026-05-04 14:56 52.34887 15.59845 35945 ft 416 kts 200°
2026-05-04 14:57 52.29281 15.57407 35946 ft 417 kts 199°
2026-05-04 14:57 52.23695 15.55045 35940 ft 417 kts 198°
2026-05-04 14:58 52.18030 15.52894 35940 ft 418 kts 198°
2026-05-04 14:58 52.12346 15.50782 35939 ft 418 kts 198°
2026-05-04 14:59 52.06661 15.48640 35935 ft 418 kts 198°
2026-05-04 15:00 51.98203 15.45401 35933 ft 418 kts 198°
2026-05-04 15:00 51.92521 15.43248 35930 ft 418 kts 198°
2026-05-04 15:01 51.84039 15.40061 35944 ft 418 kts 198°
2026-05-04 15:01 51.78339 15.37921 35942 ft 418 kts 198°
2026-05-04 15:02 51.72681 15.35783 35942 ft 418 kts 198°
2026-05-04 15:02 51.67025 15.33674 35939 ft 418 kts 197°
2026-05-04 15:03 51.61347 15.31551 35939 ft 418 kts 197°
2026-05-04 15:03 51.55709 15.29444 35938 ft 418 kts 197°
2026-05-04 15:04 51.50036 15.27332 35941 ft 418 kts 197°
2026-05-04 15:04 51.44361 15.25230 35943 ft 418 kts 197°
2026-05-04 15:05 51.38678 15.23127 35941 ft 418 kts 197°
2026-05-04 15:05 51.33039 15.21041 35941 ft 418 kts 197°
2026-05-04 15:06 51.27364 15.18955 35942 ft 419 kts 197°
2026-05-04 15:07 51.18821 15.15833 35947 ft 419 kts 197°
2026-05-04 15:07 51.13162 15.13764 35950 ft 419 kts 197°
2026-05-04 15:08 51.07455 15.11686 35952 ft 419 kts 197°
2026-05-04 15:08 51.01805 15.09631 35950 ft 419 kts 197°
2026-05-04 15:09 50.96160 15.07352 35952 ft 418 kts 199°
2026-05-04 15:09 50.90560 15.04829 35949 ft 417 kts 200°
2026-05-04 15:10 50.82196 15.01093 35950 ft 418 kts 199°
2026-05-04 15:11 50.74720 14.97881 35949 ft 418 kts 199°
2026-05-04 15:11 50.68173 14.95066 35950 ft 419 kts 199°
2026-05-04 15:12 50.63455 14.93028 35951 ft 419 kts 199°
2026-05-04 15:12 50.57830 14.90609 35949 ft 419 kts 199°
2026-05-04 15:13 50.52240 14.88221 35950 ft 419 kts 199°
2026-05-04 15:13 50.46601 14.85774 35953 ft 419 kts 200°
2026-05-04 15:14 50.41074 14.83004 35954 ft 418 kts 202°
2026-05-04 15:14 50.35560 14.80072 35955 ft 418 kts 202°
2026-05-04 15:15 50.30027 14.77198 35958 ft 419 kts 201°
2026-05-04 15:15 50.24478 14.74393 35961 ft 419 kts 201°
2026-05-04 15:16 50.16151 14.70202 35965 ft 420 kts 201°
2026-05-04 15:17 50.07794 14.66001 35959 ft 421 kts 201°
2026-05-04 15:17 49.99430 14.61807 35965 ft 421 kts 201°
2026-05-04 15:18 49.93845 14.59005 35973 ft 421 kts 201°
2026-05-04 15:19 49.85458 14.54836 35968 ft 421 kts 201°
2026-05-04 15:19 49.77105 14.50684 35966 ft 422 kts 201°
2026-05-04 15:20 49.71513 14.47912 35970 ft 422 kts 201°
2026-05-04 15:20 49.65910 14.45145 35977 ft 422 kts 201°
2026-05-04 15:21 49.60343 14.42401 35970 ft 422 kts 201°
2026-05-04 15:22 49.51943 14.38277 35969 ft 422 kts 201°
2026-05-04 15:22 49.43540 14.34173 35966 ft 421 kts 201°
2026-05-04 15:23 49.37984 14.31464 35957 ft 421 kts 201°
2026-05-04 15:23 49.32385 14.28743 35952 ft 421 kts 201°
2026-05-04 15:24 49.21244 14.23325 35949 ft 421 kts 201°
2026-05-04 15:25 49.15650 14.20616 35952 ft 421 kts 201°
2026-05-04 15:26 49.07283 14.16590 35950 ft 421 kts 200°
2026-05-04 15:26 48.98869 14.12557 35958 ft 421 kts 200°
2026-05-04 15:27 48.90503 14.08542 35961 ft 421 kts 200°
2026-05-04 15:28 48.82132 14.04551 35952 ft 420 kts 200°
2026-05-04 15:29 48.73740 14.00563 35948 ft 420 kts 200°
2026-05-04 15:30 48.54864 13.89327 35932 ft 418 kts 205°
2026-05-04 15:31 48.46837 13.84239 35922 ft 418 kts 205°
2026-05-04 15:32 48.33443 13.75791 35914 ft 418 kts 205°
2026-05-04 15:34 48.20022 13.67381 35906 ft 417 kts 205°
2026-05-04 15:34 48.12005 13.62369 35907 ft 417 kts 205°
2026-05-04 15:35 48.03954 13.57367 35904 ft 418 kts 205°
2026-05-04 15:36 47.95878 13.52371 35910 ft 418 kts 204°
2026-05-04 15:36 47.90710 13.48590 35905 ft 415 kts 216°
2026-05-04 15:37 47.86090 13.43410 35910 ft 415 kts 218°
2026-05-04 15:37 47.81465 13.38245 35910 ft 415 kts 218°
2026-05-04 15:38 47.76835 13.33099 35910 ft 415 kts 218°
2026-05-04 15:38 47.72228 13.27987 35912 ft 416 kts 218°
2026-05-04 15:39 47.67579 13.22852 35913 ft 416 kts 218°
2026-05-04 15:40 47.60623 13.15158 35914 ft 415 kts 218°
2026-05-04 15:40 47.56021 13.10065 35912 ft 415 kts 218°
2026-05-04 15:41 47.51377 13.04957 35924 ft 416 kts 218°
2026-05-04 15:41 47.46717 12.99843 35936 ft 416 kts 218°
2026-05-04 15:42 47.42088 12.94775 35948 ft 416 kts 218°
2026-05-04 15:42 47.37427 12.89692 35955 ft 416 kts 218°
2026-05-04 15:43 47.32771 12.84604 35964 ft 415 kts 218°
2026-05-04 15:43 47.28148 12.79568 35967 ft 415 kts 218°
2026-05-04 15:44 47.23486 12.74508 35980 ft 416 kts 217°
2026-05-04 15:44 47.18847 12.69490 35980 ft 415 kts 217°
2026-05-04 15:45 47.14192 12.64460 36000 ft 416 kts 217°
2026-05-04 15:45 47.09512 12.59406 36012 ft 416 kts 217°
2026-05-04 15:46 47.04852 12.54394 36023 ft 416 kts 217°
2026-05-04 15:46 47.00203 12.49398 36050 ft 415 kts 217°
2026-05-04 15:47 46.95540 12.44405 36078 ft 415 kts 217°
2026-05-04 15:47 46.90860 12.39409 36101 ft 415 kts 217°
2026-05-04 15:48 46.86221 12.34468 36121 ft 415 kts 217°
2026-05-04 15:48 46.79227 12.27029 36142 ft 414 kts 218°
2026-05-04 15:49 46.74654 12.21978 36141 ft 414 kts 218°
2026-05-04 15:49 46.70075 12.16839 36139 ft 414 kts 218°
2026-05-04 15:50 46.65505 12.11752 36126 ft 413 kts 218°
2026-05-04 15:50 46.60954 12.06711 36111 ft 413 kts 218°
2026-05-04 15:51 46.56362 12.01664 36101 ft 413 kts 218°
2026-05-04 15:51 46.51795 11.96653 36093 ft 413 kts 218°
2026-05-04 15:52 46.47207 11.91615 36082 ft 413 kts 218°
2026-05-04 15:52 46.42616 11.86590 36085 ft 412 kts 218°
2026-05-04 15:53 46.38026 11.81579 36087 ft 412 kts 218°
2026-05-04 15:53 46.33472 11.76611 36080 ft 412 kts 218°
2026-05-04 15:54 46.28885 11.71620 36085 ft 411 kts 218°
2026-05-04 15:54 46.24334 11.66679 36080 ft 411 kts 218°
2026-05-04 15:55 46.20517 11.62547 36084 ft 411 kts 218°
2026-05-04 15:55 46.15937 11.57596 36090 ft 411 kts 218°
2026-05-04 15:56 46.11353 11.52642 36105 ft 410 kts 218°
2026-05-04 15:56 46.06798 11.47738 36104 ft 410 kts 218°
2026-05-04 15:57 46.02215 11.42823 36080 ft 412 kts 218°
2026-05-04 15:57 45.97632 11.37904 36072 ft 413 kts 218°
2026-05-04 15:58 45.95321 11.35429 35284 ft 416 kts 218°
2026-05-04 15:58 45.92958 11.32902 33671 ft 429 kts 217°
2026-05-04 15:58 45.90559 11.30340 32613 ft 427 kts 217°
2026-05-04 15:58 45.88210 11.27835 32138 ft 411 kts 217°
2026-05-04 15:59 45.85953 11.25434 31632 ft 398 kts 216°
2026-05-04 15:59 45.83761 11.23102 31156 ft 386 kts 216°
2026-05-04 15:59 45.81639 11.20843 30692 ft 374 kts 216°
2026-05-04 15:59 45.79606 11.18681 30256 ft 363 kts 216°
2026-05-04 16:00 45.77583 11.16533 29733 ft 359 kts 216°
2026-05-04 16:00 45.75581 11.14410 29319 ft 358 kts 216°
2026-05-04 16:00 45.73584 11.12296 28905 ft 356 kts 216°
2026-05-04 16:00 45.71593 11.10188 28476 ft 354 kts 216°
2026-05-04 16:01 45.69637 11.08117 28074 ft 353 kts 216°
2026-05-04 16:01 45.67638 11.06102 27669 ft 351 kts 210°
2026-05-04 16:01 45.65436 11.04619 27244 ft 349 kts 199°
2026-05-04 16:01 45.63075 11.03806 26877 ft 347 kts 187°
2026-05-04 16:02 45.60652 11.03675 26609 ft 350 kts 177°
2026-05-04 16:02 45.58246 11.04154 26221 ft 350 kts 172°
2026-05-04 16:02 45.53450 11.05325 25418 ft 348 kts 172°
2026-05-04 16:03 45.51097 11.05891 25017 ft 347 kts 172°
2026-05-04 16:03 45.48717 11.06463 24592 ft 346 kts 172°
2026-05-04 16:03 45.46345 11.07033 24190 ft 345 kts 172°
2026-05-04 16:03 45.44001 11.07596 23768 ft 344 kts 172°
2026-05-04 16:04 45.41622 11.08169 23289 ft 342 kts 172°
2026-05-04 16:04 45.36983 11.09298 22438 ft 338 kts 172°
2026-05-04 16:04 45.34674 11.09859 22021 ft 335 kts 172°
2026-05-04 16:05 45.32378 11.10414 21611 ft 333 kts 173°
2026-05-04 16:05 45.30089 11.10965 21205 ft 331 kts 173°
2026-05-04 16:05 45.25567 11.12052 20376 ft 327 kts 173°
2026-05-04 16:06 45.23360 11.12581 19980 ft 325 kts 173°
2026-05-04 16:06 45.17466 11.13983 18908 ft 319 kts 173°
2026-05-04 16:07 45.14545 11.14681 18364 ft 316 kts 173°
2026-05-04 16:07 45.08109 11.16221 17150 ft 308 kts 173°
2026-05-04 16:08 45.06003 11.16721 16777 ft 306 kts 173°
2026-05-04 16:08 44.99802 11.18203 15655 ft 298 kts 172°
2026-05-04 16:09 44.95739 11.19174 14927 ft 293 kts 172°
2026-05-04 16:09 44.91775 11.20114 14209 ft 288 kts 172°
2026-05-04 16:10 44.87925 11.21024 13469 ft 284 kts 171°
2026-05-04 16:11 44.82134 11.22389 12384 ft 280 kts 172°
2026-05-04 16:11 44.80192 11.22844 12104 ft 290 kts 172°
2026-05-04 16:12 44.74125 11.22111 10709 ft 287 kts 197°
2026-05-04 16:12 44.70080 11.16890 9940 ft 277 kts 257°
2026-05-04 16:13 44.70847 11.11779 9077 ft 274 kts 295°
2026-05-04 16:13 44.72562 11.07083 8184 ft 264 kts 294°
2026-05-04 16:14 44.74189 11.02331 6843 ft 271 kts 297°
2026-05-04 16:14 44.75920 10.97830 6021 ft 257 kts 297°
2026-05-04 16:15 44.78414 10.91228 4477 ft 251 kts 297°
2026-05-04 16:16 44.79023 10.86691 3761 ft 232 kts 255°
2026-05-04 16:16 44.75896 10.82604 3535 ft 212 kts 187°
2026-05-04 16:17 44.73094 10.83514 3538 ft 211 kts 143°
2026-05-04 16:18 44.70138 10.88067 3539 ft 211 kts 130°
2026-05-04 16:18 44.69167 10.89625 3535 ft 211 kts 130°
2026-05-04 16:19 44.66279 10.94256 3541 ft 210 kts 130°
2026-05-04 16:19 44.64730 10.97619 3533 ft 201 kts 117°
2026-05-04 16:20 44.62850 11.02859 3531 ft 200 kts 116°
2026-05-04 16:20 44.61602 11.06361 3383 ft 201 kts 116°
2026-05-04 16:21 44.59780 11.11466 2639 ft 186 kts 117°
2026-05-04 16:22 44.58696 11.14499 2182 ft 156 kts 117°
2026-05-04 16:22 44.57372 11.18196 1616 ft 135 kts 117°
2026-05-04 16:23 44.56124 11.21676 1071 ft 133 kts 118°
2026-05-04 16:24 44.54468 11.26291 372 ft 132 kts 118°
2026-05-04 16:25 44.53689 11.28471 127 ft 104 kts 116°
2026-05-04 16:26 44.53213 11.29636 126 ft 19 kts 142°
2026-05-04 16:26 44.53043 11.29710 127 ft 8 kts 295°
2026-05-04 16:27 44.53097 11.29562 124 ft 9 kts 296°
2026-05-04 16:28 44.53138 11.29366 125 ft 4 kts 206°
2026-05-04 16:28 44.53076 11.29324 125 ft 2 kts 206°
2026-05-04 16:29 44.53068 11.29318 124 ft 0 kts 206°